Hourly Weather Al Kufah

Today, 9 March, Tuesday

Time Temperature Precipitation Wind Pressure Humidity
00:00 +19°C° 0 mm 4 mps 757 mmHg 35%
01:00 +19°C° 0 mm 4 mps 757 mmHg 36%
02:00 +18°C° 0 mm 4 mps 757 mmHg 38%
03:00 +18°C° 0 mm 3 mps 757 mmHg 40%
04:00 +17°C° 0 mm 3 mps 758 mmHg 41%
05:00 +17°C° 0 mm 3 mps 758 mmHg 42%
06:00 +17°C° 0 mm 3 mps 758 mmHg 43%
07:00 +18°C° 0 mm 2 mps 759 mmHg 40%
08:00 +19°C° 0 mm 2 mps 759 mmHg 38%
09:00 +21°C° 0 mm 1 mps 760 mmHg 35%
10:00 +22°C° 0 mm 1 mps 760 mmHg 32%
11:00 +23°C° 0 mm 1 mps 759 mmHg 29%
12:00 +25°C° 0 mm 1 mps 759 mmHg 27%
13:00 +25°C° 0 mm 1 mps 759 mmHg 25%
14:00 +26°C° 0 mm 2 mps 758 mmHg 23%
15:00 +26°C° 0 mm 3 mps 758 mmHg 22%
16:00 +26°C° 0 mm 2 mps 758 mmHg 23%
17:00 +25°C° 0 mm 1 mps 758 mmHg 24%
18:00 +25°C° 0 mm 1 mps 758 mmHg 25%
19:00 +24°C° 0 mm 1 mps 759 mmHg 26%
20:00 +23°C° 0 mm 2 mps 759 mmHg 27%
21:00 +23°C° 0 mm 2 mps 760 mmHg 28%
22:00 +21°C° 0 mm 2 mps 759 mmHg 30%
23:00 +20°C° 0 mm 2 mps 759 mmHg 31%

Tomorrow, 10 March, Wednesday

Time Temperature Precipitation Wind Pressure Humidity
00:00 +21°C° 0 mm 1 mps 759 mmHg 33%
01:00 +20°C° 0 mm 1 mps 759 mmHg 34%
02:00 +19°C° 0 mm 2 mps 759 mmHg 36%
03:00 +18°C° 0 mm 2 mps 759 mmHg 37%
04:00 +18°C° 0 mm 2 mps 759 mmHg 38%
05:00 +17°C° 0 mm 2 mps 760 mmHg 40%
06:00 +17°C° 0 mm 2 mps 760 mmHg 41%
07:00 +18°C° 0 mm 2 mps 761 mmHg 38%
08:00 +21°C° 0 mm 1 mps 761 mmHg 35%
09:00 +22°C° 0 mm 1 mps 762 mmHg 32%
10:00 +24°C° 0 mm 1 mps 761 mmHg 28%
11:00 +25°C° 0 mm 1 mps 761 mmHg 25%
12:00 +26°C° 0 mm 1 mps 761 mmHg 22%
13:00 +27°C° 0 mm 1 mps 760 mmHg 20%
14:00 +28°C° 0 mm 1 mps 759 mmHg 19%
15:00 +26°C° 0 mm 0 mps 759 mmHg 17%
16:00 +28°C° 0 mm 1 mps 759 mmHg 18%
17:00 +27°C° 0 mm 1 mps 758 mmHg 20%
18:00 +27°C° 0 mm 2 mps 758 mmHg 21%
19:00 +26°C° 0 mm 2 mps 758 mmHg 22%
20:00 +25°C° 0 mm 2 mps 759 mmHg 23%
21:00 +25°C° 0 mm 2 mps 759 mmHg 24%
22:00 +24°C° 0 mm 3 mps 758 mmHg 24%
23:00 +23°C° 0 mm 4 mps 758 mmHg 24%

Day after tomorrow, 11 March, Thursday

Time Temperature Precipitation Wind Pressure Humidity
00:00 +23°C° 0 mm 5 mps 757 mmHg 23%
01:00 +22°C° 0 mm 6 mps 756 mmHg 24%
02:00 +22°C° 0 mm 6 mps 756 mmHg 25%
03:00 +21°C° 0 mm 6 mps 755 mmHg 26%
04:00 +21°C° 0 mm 6 mps 755 mmHg 26%
05:00 +21°C° 0 mm 6 mps 754 mmHg 27%
06:00 +20°C° 0 mm 6 mps 754 mmHg 27%
07:00 +22°C° 0 mm 5 mps 754 mmHg 25%
08:00 +23°C° 0 mm 5 mps 754 mmHg 23%
09:00 +26°C° 0 mm 5 mps 755 mmHg 21%
10:00 +29°C° 0 mm 7 mps 754 mmHg 18%
11:00 +33°C° 0 mm 9 mps 754 mmHg 15%
12:00 +36°C° 0 mm 11 mps 753 mmHg 12%
13:00 +37°C° 0 mm 10 mps 752 mmHg 11%
14:00 +38°C° 0 mm 10 mps 751 mmHg 10%
15:00 +38°C° 0 mm 10 mps 750 mmHg 8%
16:00 +37°C° 0 mm 8 mps 750 mmHg 9%
17:00 +34°C° 0 mm 6 mps 749 mmHg 10%
18:00 +33°C° 0 mm 3 mps 749 mmHg 11%
19:00 +31°C° 0 mm 3 mps 749 mmHg 12%
20:00 +30°C° 0 mm 3 mps 749 mmHg 12%
21:00 +28°C° 0 mm 3 mps 750 mmHg 13%
22:00 +27°C° 0 mm 3 mps 750 mmHg 14%
23:00 +27°C° 0 mm 3 mps 750 mmHg 14%

12 March, Friday

Time Temperature Precipitation Wind Pressure Humidity
00:00 +26°C° 0 mm 3 mps 750 mmHg 15%
01:00 +26°C° 0 mm 4 mps 750 mmHg 17%
02:00 +26°C° 0 mm 5 mps 750 mmHg 19%
03:00 +26°C° 0 mm 5 mps 749 mmHg 22%
04:00 +25°C° 0 mm 5 mps 750 mmHg 24%
05:00 +23°C° 0 mm 5 mps 750 mmHg 26%
06:00 +23°C° 0 mm 5 mps 750 mmHg 28%
07:00 +23°C° 0 mm 5 mps 750 mmHg 31%
08:00 +23°C° 0 mm 6 mps 750 mmHg 33%
09:00 +23°C° 0 mm 7 mps 751 mmHg 36%
10:00 +21°C° 0.7 mm 9 mps 750 mmHg 45%
11:00 +18°C° 0.7 mm 11 mps 750 mmHg 55%
12:00 +15°C° 0.7 mm 13 mps 750 mmHg 65%
13:00 +18°C° 0.4 mm 11 mps 750 mmHg 55%
14:00 +19°C° 0.4 mm 9 mps 750 mmHg 45%
15:00 +21°C° 0.4 mm 8 mps 750 mmHg 34%
16:00 +21°C° 0 mm 8 mps 750 mmHg 32%
17:00 +22°C° 0 mm 8 mps 750 mmHg 30%
18:00 +22°C° 0 mm 9 mps 750 mmHg 27%
19:00 +19°C° 0 mm 9 mps 751 mmHg 26%
20:00 +17°C° 0 mm 9 mps 752 mmHg 25%
21:00 +16°C° 0 mm 10 mps 754 mmHg 24%
22:00 +15°C° 0 mm 9 mps 754 mmHg 24%
23:00 +13°C° 0 mm 9 mps 755 mmHg 23%

13 March, Saturday

Time Temperature Precipitation Wind Pressure Humidity
00:00 +12°C° 0 mm 9 mps 756 mmHg 23%
01:00 +11°C° 0 mm 9 mps 756 mmHg 24%
02:00 +11°C° 0 mm 8 mps 757 mmHg 25%
03:00 +11°C° 0 mm 8 mps 757 mmHg 26%
04:00 +10°C° 0 mm 7 mps 757 mmHg 26%
05:00 +9°C° 0 mm 6 mps 758 mmHg 26%
06:00 +9°C° 0 mm 6 mps 758 mmHg 26%
07:00 +9°C° 0 mm 6 mps 759 mmHg 24%
08:00 +10°C° 0 mm 6 mps 760 mmHg 23%
09:00 +11°C° 0 mm 7 mps 761 mmHg 22%
10:00 +12°C° 0 mm 7 mps 761 mmHg 21%
11:00 +14°C° 0 mm 7 mps 761 mmHg 21%
12:00 +15°C° 0 mm 6 mps 761 mmHg 20%
13:00 +16°C° 0 mm 6 mps 761 mmHg 22%
14:00 +16°C° 0 mm 6 mps 761 mmHg 23%
15:00 +17°C° 0 mm 6 mps 760 mmHg 25%
16:00 +17°C° 0 mm 5 mps 760 mmHg 27%
17:00 +17°C° 0 mm 4 mps 760 mmHg 30%
18:00 +17°C° 0 mm 3 mps 761 mmHg 32%
19:00 +17°C° 0 mm 3 mps 761 mmHg 34%
20:00 +16°C° 0 mm 3 mps 761 mmHg 36%
21:00 +16°C° 0 mm 2 mps 761 mmHg 38%
22:00 +15°C° 0 mm 2 mps 761 mmHg 39%
23:00 +15°C° 0 mm 2 mps 761 mmHg 40%

14 March, Sunday

Time Temperature Precipitation Wind Pressure Humidity
00:00 +15°C° 0 mm 2 mps 761 mmHg 42%
01:00 +15°C° 0 mm 2 mps 761 mmHg 43%
02:00 +14°C° 0 mm 2 mps 761 mmHg 45%
03:00 +14°C° 0 mm 2 mps 761 mmHg 47%
04:00 +14°C° 0 mm 2 mps 761 mmHg 49%
05:00 +12°C° 0 mm 3 mps 761 mmHg 51%
06:00 +12°C° 0 mm 3 mps 761 mmHg 53%
07:00 +14°C° 0 mm 2 mps 761 mmHg 47%
08:00 +16°C° 0 mm 2 mps 762 mmHg 41%
09:00 +17°C° 0 mm 2 mps 762 mmHg 36%
10:00 +18°C° 0 mm 2 mps 762 mmHg 32%
11:00 +20°C° 0 mm 2 mps 761 mmHg 29%
12:00 +21°C° 0 mm 2 mps 761 mmHg 25%
13:00 +23°C° 0 mm 2 mps 760 mmHg 24%
14:00 +23°C° 0 mm 2 mps 760 mmHg 22%
15:00 +24°C° 0 mm 2 mps 759 mmHg 20%
16:00 +24°C° 0 mm 2 mps 759 mmHg 22%
17:00 +23°C° 0 mm 2 mps 759 mmHg 23%
18:00 +22°C° 0 mm 3 mps 759 mmHg 24%
19:00 +21°C° 0 mm 2 mps 759 mmHg 26%
20:00 +20°C° 0 mm 2 mps 759 mmHg 28%
21:00 +19°C° 0 mm 2 mps 759 mmHg 30%
22:00 +19°C° 0 mm 2 mps 759 mmHg 31%
23:00 +19°C° 0 mm 2 mps 759 mmHg 32%
Show more